Probability
0 0 0 0 1 2 3 3 3 3 3 4 5 4 4 5 6 6 4 2 1 0 0 0 0 0 0 0 0 0 0 0 0 0 0 0 0 0 0 0 0 0 0
0 0 0 0 1 2 3 3 3 3 3 3 4 3 3 4 5 4 4 2 1 0 0 0 0 0 0 0 0 0 0 0 0 0 0 0 0 0 0 0 0 0 0
0 0 0 0 0 1 1 2 3 3 3 3 3 3 3 2 2 2 2 2 1 0 0 0 0 0 0 0 0 0 0 0 0 0 0 0 0 0 0 0 0 0 0
0 0 0 0 0 0 0 1 2 3 3 3 3 3 3 1 0 1 1 1 0 0 0 0 0 0 0 0 0 0 0 0 0 0 0 0 0 0 0 0 0 0 0
0 0 0 0 0 0 0 0 1 1 2 2 2 2 2 1 1 2 2 1 0 0 0 0 0 0 0 0 0 0 0 0 0 0 0 0 0 0 0 0 0 0 0
0 0 0 0 0 0 0 0 0 0 0 0 1 1 1 0 1 2 2 1 0 0 0 0 0 0 0 0 0 0 0 0 0 0 0 0 0 0 0 0 0 0 0
0 0 0 0 0 0 0 0 0 0 0 0 0 0 0 0 0 1 2 2 0 0 0 0 0 0 0 0 0 0 0 0 0 0 0 0 0 0 0 0 0 0 0
0 0 0 0 0 0 0 0 0 0 0 0 0 0 0 0 0 1 2 1 0 0 0 0 0 0 0 0 0 0 0 0 0 0 0 0 0 0 0 0 0 0 0
0 0 0 0 0 0 0 0 0 0 0 0 0 0 0 0 0 1 1 1 0 0 0 0 0 0 0 0 0 0 0 0 0 0 0 0 0 0 0 0 0 0 0
0 0 0 0 0 0 0 0 0 0 0 0 0 0 0 0 0 0 0 0 0 0 0 0 0 0 0 0 0 0 0 0 0 0 0 0 0 0 0 0 0 0 0
0 0 0 0 0 0 0 0 0 0 0 0 0 0 0 0 0 0 0 0 0 0 0 0 0 0 0 0 0 0 0 0 0 0 0 0 0 0 0 0 0 0 0
0 0 0 0 0 0 0 0 0 0 0 0 0 0 0 0 0 0 0 0 0 0 0 0 0 0 0 0 0 0 0 0 0 0 0 0 0 0 0 0 0 0 0
0 0 0 0 0 0 0 0 0 0 0 0 0 0 0 0 0 0 0 0 0 0 0 0 0 0 0 0 0 0 0 0 0 0 0 0 0 0 0 0 0 0 0
0 0 0 0 0 0 0 0 0 0 0 0 0 0 0 0 0 0 0 0 0 0 0 0 0 0 0 0 0 0 0 0 0 0 0 0 0 0 0 0 0 0 0
0 0 0 0 0 0 0 0 0 0 0 0 0 0 0 0 0 0 0 0 0 0 0 0 0 0 0 0 0 0 0 0 0 0 0 0 0 0 0 0 0 0 0
0 0 0 0 0 0 0 0 0 0 0 0 0 0 0 0 0 0 0 0 0 0 0 0 0 0 0 0 0 0 0 0 0 0 0 0 0 0 0 0 0 0 0
0 0 0 0 0 0 0 0 0 0 0 0 0 0 0 0 0 0 0 0 0 0 0 0 0 0 0 0 0 0 0 0 0 0 0 0 0 0 0 0 0 0 0
0 0 0 0 0 0 0 0 0 0 0 0 0 0 0 0 0 0 0 0 0 0 0 0 0 0 0 0 0 0 0 0 0 0 0 0 0 0 0 0 0 0 0
0 0 0 0 0 0 0 0 0 0 0 0 0 0 0 0 0 0 0 0 0 0 0 0 0 0 0 0 0 0 0 0 0 0 0 0 0 0 0 0 0 0 0
0 0 0 0 0 0 0 0 0 0 0 0 0 0 0 0 0 0 0 0 0 0 0 0 0 0 0 0 0 0 0 0 0 0 0 0 0 0 0 0 0 0 0
0 0 0 0 0 0 0 0 0 0 0 0 0 0 0 0 0 0 0 0 0 0 0 0 0 0 0 0 0 0 0 0 0 0 0 0 0 0 0 0 0 0 0
0 0 0 0 0 0 0 0 0 0 0 0 0 0 0 0 0 0 0 0 0 0 0 0 0 0 0 0 0 0 0 0 0 0 0 0 0 0 0 0 0 0 0
0 0 0 0 0 0 0 0 0 0 0 0 0 0 0 0 0 0 0 0 0 0 0 0 0 0 0 0 0 0 0 0 0 0 0 0 0 0 0 0 0 0 0
0 0 0 0 0 0 0 0 0 0 0 0 0 0 0 0 0 0 0 0 0 0 0 0 0 0 0 0 0 0 0 0 0 0 0 0 0 0 0 0 0 0 0
0 0 0 0 0 0 0 0 0 0 0 0 0 0 0 0 0 0 0 0 0 0 0 0 0 0 0 0 0 0 0 0 0 0 0 0 0 0 0 0 0 0 0
0 0 0 0 0 0 0 0 0 0 0 0 0 0 0 0 0 0 0 0 0 0 0 0 0 0 0 0 0 0 0 0 0 0 0 0 0 0 0 0 0 0 0
Wind_Speed
3 3 3 2 2 1 1 2 2 3 2 2 2 2 1 1 1 1 1 2 2 2 2 1 1 1 1 1 1 1 1 1 1 1 2 2 2 1 1 1 1 1 1
4 3 3 2 2 2 2 2 2 2 2 2 2 1 1 1 1 1 1 1 2 2 1 1 1 1 1 1 1 1 0 0 1 1 1 2 2 1 1 1 1 1 1
5 5 4 3 2 2 2 2 2 2 2 2 2 1 1 1 1 1 1 1 1 2 1 2 1 1 1 1 0 0 1 1 0 1 0 0 1 3 2 2 1 1 1
4 4 4 3 3 2 2 2 2 2 1 2 3 3 2 2 2 2 1 1 1 1 1 2 2 1 1 1 1 0 0 1 1 1 1 1 0 1 3 2 1 1 2
5 4 3 3 3 2 2 1 2 1 1 1 2 3 2 2 1 2 2 2 1 1 2 2 2 2 1 1 1 1 1 1 1 1 1 1 1 1 1 3 3 3 2
4 3 3 3 3 3 2 2 2 1 1 1 1 3 3 3 2 2 2 2 1 1 1 1 1 2 2 2 2 2 2 1 1 1 0 0 1 1 1 3 3 4 3
3 3 3 3 2 2 2 2 2 1 1 1 1 2 3 3 3 3 2 2 1 1 1 1 1 1 2 2 2 2 2 2 2 2 2 1 2 1 1 2 3 4 3
3 3 3 3 3 2 2 2 2 1 1 1 1 0 1 2 2 2 2 2 2 2 1 1 1 1 1 1 2 2 2 2 2 2 2 2 2 1 1 1 2 3 3
3 3 3 3 2 2 1 1 1 1 1 0 0 1 1 1 2 2 1 1 1 1 2 1 1 1 1 2 2 2 2 2 2 3 3 2 2 2 2 2 2 2 3
2 3 3 3 2 2 1 1 1 1 1 1 0 0 1 1 1 1 1 2 2 2 2 2 1 2 2 2 2 2 3 3 3 2 3 3 2 2 2 2 2 2 3
2 2 2 2 2 2 2 1 1 1 1 1 0 0 0 1 1 1 1 1 1 1 2 2 2 2 2 2 3 3 3 3 3 3 3 4 3 2 2 2 2 2 2
2 2 2 2 2 2 1 1 1 1 1 0 0 0 0 0 1 1 1 1 1 1 2 2 2 2 2 2 3 4 3 4 4 4 4 4 3 3 3 3 3 3 3
2 2 1 1 1 1 1 1 1 1 1 1 0 0 0 1 1 1 1 1 1 1 2 2 2 2 3 3 4 4 4 4 4 4 5 4 4 4 3 3 3 3 3
2 1 1 0 0 0 0 0 0 1 1 1 1 1 1 1 1 1 1 1 1 2 2 2 2 2 3 3 4 4 4 4 5 5 5 5 5 5 5 4 4 3 3
1 1 1 1 1 0 0 0 0 1 1 1 1 1 2 2 1 0 1 1 1 2 2 2 2 3 3 3 4 4 4 4 5 5 5 5 6 7 6 4 4 4 4
2 2 2 2 2 1 1 0 0 0 1 0 1 1 2 2 1 1 1 1 2 2 2 3 3 3 3 5 6 5 4 5 5 5 5 5 5 6 7 8 7 6 6
2 2 2 2 2 1 1 1 0 1 1 0 1 1 1 2 2 2 1 2 2 2 3 3 3 4 4 6 6 6 5 5 5 5 5 4 4 4 4 6 7 7 8
2 2 1 1 1 1 1 1 1 0 0 1 1 1 1 2 2 2 2 2 2 3 3 3 3 4 4 6 7 7 5 5 4 4 5 5 4 4 4 4 4 5 6
2 1 0 0 1 1 1 1 0 0 0 1 1 1 1 2 2 2 3 2 2 3 3 3 3 4 5 6 7 6 4 4 4 4 4 4 5 7 7 5 5 6 5
1 1 1 1 1 1 1 1 0 0 1 2 2 2 2 2 3 3 3 3 3 3 3 4 3 4 5 6 7 6 3 4 4 4 4 6 7 8 7 5 5 6 6
1 1 1 1 0 1 1 0 1 1 2 2 2 2 2 3 3 3 2 2 3 3 3 4 4 4 5 6 7 7 4 4 4 4 3 4 7 8 9 8 6 7 5
1 1 0 0 1 1 1 0 2 2 2 2 2 2 3 3 2 3 3 2 2 3 3 4 4 4 4 4 6 7 7 6 4 4 3 4 7 8 9 7 7 7 4
1 1 0 0 1 1 0 1 2 2 2 2 2 3 3 3 3 2 3 3 2 2 3 3 3 4 3 4 6 7 8 8 5 4 6 7 8 7 6 7 6 4 2
1 0 1 0 1 1 1 1 2 2 1 2 3 3 3 3 3 2 2 2 2 2 3 3 3 4 3 3 3 3 4 5 5 4 4 6 7 6 4 3 3 2 2
1 1 0 1 2 1 1 1 1 1 2 3 3 3 3 3 3 3 3 3 3 3 4 3 3 4 4 5 7 5 3 3 4 3 2 2 2 2 2 2 2 2 2
1 0 1 1 2 2 2 2 1 2 2 3 3 2 2 2 2 3 3 5 5 7 7 7 6 5 7 10 10 9 9 8 7 3 2 2 3 3 2 2 2 2 2
Wind_Direction
167 147 148 144 146 146 158 156 148 161 154 153 162 168 175 168 146 121 96 106 104 106 112 104 113 94 95 74 42 38 62 33 16 5 329 301 263 208 232 256 281 312 321
165 157 149 149 160 170 170 161 156 151 162 160 166 164 155 152 155 138 128 114 111 110 119 117 122 120 124 86 65 70 56 40 38 28 342 326 312 291 268 265 253 277 304
180 173 169 174 167 168 167 158 153 152 155 148 133 118 122 129 140 152 151 127 128 131 127 140 135 141 142 157 166 144 72 177 300 22 92 39 285 313 279 258 262 277 294
184 175 169 166 161 159 132 133 138 140 150 159 159 164 166 178 190 182 161 134 140 151 143 151 155 152 151 167 189 235 175 149 212 292 323 266 205 285 303 290 264 278 281
171 164 160 155 143 128 125 132 131 140 158 158 171 173 175 175 160 159 157 161 166 161 150 160 168 167 174 186 188 193 182 174 197 238 310 306 307 272 267 290 304 306 282
140 138 136 118 110 111 120 130 130 140 155 168 182 185 183 173 167 173 176 175 169 165 150 149 174 182 182 188 200 201 200 207 214 236 272 244 254 266 274 278 295 298 290
132 132 134 130 121 120 127 131 137 150 164 179 185 199 191 187 188 182 186 182 171 167 182 151 184 195 195 196 199 197 209 208 212 218 235 249 261 271 284 277 290 297 295
136 140 144 141 135 131 128 136 144 152 154 180 185 191 187 179 183 176 182 193 183 184 195 191 201 207 211 208 201 206 215 214 219 236 232 242 256 262 259 263 286 302 298
138 142 138 131 129 127 126 131 144 135 122 131 154 165 183 178 180 177 179 192 182 181 193 201 217 220 219 215 199 215 224 223 224 233 235 245 249 250 255 250 232 245 281
137 127 123 117 114 115 105 99 108 116 91 79 83 144 171 176 176 164 183 199 192 192 191 194 215 226 227 225 210 220 224 224 231 234 234 246 252 246 252 250 252 246 255
136 124 107 105 99 93 91 85 82 86 75 55 37 116 164 165 169 181 199 201 192 190 204 204 214 227 231 233 222 230 225 228 236 238 236 245 245 243 243 248 251 255 257
94 86 87 92 89 83 74 64 47 49 40 38 28 139 45 169 193 196 209 210 205 203 216 218 218 227 235 236 231 231 234 231 234 237 238 244 244 243 239 242 246 249 252
108 93 86 96 106 98 77 63 44 25 10 11 18 330 279 236 230 226 220 226 223 224 232 231 225 232 241 243 245 237 237 237 237 235 235 240 238 243 246 244 247 255 269
138 141 153 183 191 146 60 37 12 37 12 8 2 296 293 262 226 241 242 233 227 227 235 245 242 240 248 250 252 250 242 241 241 239 237 235 232 236 239 241 248 254 264
182 196 209 225 227 220 35 19 11 18 30 25 344 309 326 323 314 296 286 270 250 245 244 247 253 252 250 250 252 255 249 245 245 244 240 238 242 244 240 244 242 239 249
234 217 218 222 220 211 210 262 332 347 51 37 323 331 337 325 301 289 290 294 278 260 251 248 250 255 256 268 271 267 258 249 246 250 250 245 240 250 255 261 261 252 243
244 233 232 231 226 216 186 208 283 29 52 0 329 331 330 315 302 295 288 277 274 268 258 255 252 253 260 272 276 277 269 255 249 252 255 257 254 250 251 262 266 264 262
257 251 248 256 233 167 129 119 92 69 349 300 305 327 330 309 310 298 281 279 279 272 266 264 261 262 268 277 281 284 271 260 253 251 250 253 257 254 256 257 262 264 262
265 247 195 358 56 89 88 112 127 166 279 297 310 321 303 290 293 286 283 280 278 277 274 269 265 265 271 278 282 283 270 262 262 257 251 248 248 259 261 250 255 268 272
19 39 76 80 80 73 93 106 261 286 290 300 304 309 298 283 279 278 283 283 274 271 274 274 269 265 268 276 279 279 263 263 266 263 255 253 255 260 259 243 241 255 263
40 52 80 88 91 91 100 115 323 299 314 324 318 314 306 294 288 286 284 280 273 275 273 275 275 270 269 276 280 278 264 259 264 264 261 260 267 266 263 260 248 257 269
22 17 45 8 35 78 103 292 301 326 351 344 328 317 310 300 300 296 293 285 273 273 273 273 279 276 271 272 281 280 275 274 258 260 262 266 276 275 271 266 267 273 272
304 321 176 1 10 25 75 275 308 346 343 332 315 307 306 303 297 288 287 285 276 267 271 271 276 280 276 278 285 286 287 284 271 260 266 274 278 277 269 271 273 263 239
301 312 130 263 309 337 348 296 320 336 312 300 301 301 300 301 298 285 274 270 270 268 272 273 275 280 283 280 281 279 286 287 285 279 276 281 282 280 279 266 263 253 241
346 32 196 247 279 310 309 315 320 309 291 287 290 295 291 289 290 283 269 266 261 257 264 266 265 274 279 280 284 279 267 258 259 270 263 259 251 251 255 247 244 241 238
337 329 297 286 298 309 299 302 294 273 272 283 291 293 291 290 289 293 294 282 279 286 284 282 279 278 282 292 290 287 286 284 279 266 248 251 247 240 238 239 245 242 239